Total_Precipitation_Accumulation
0.00 0.00 0.00 0.00 0.00 0.00 0.00 0.03 0.06 0.12 0.18 0.26 0.36 0.51 0.57 0.59 0.54 0.57 0.60 0.47 0.29 0.23 0.18 0.11 0.06 0.04 0.12 0.19 0.15 0.14 0.09 0.04 0.01 0.00 0.00 0.00 0.00 0.00 0.00 0.00 0.00 0.00 0.00
0.00 0.00 0.00 0.00 0.00 0.00 0.01 0.03 0.04 0.08 0.15 0.24 0.33 0.49 0.63 0.62 0.58 0.59 0.60 0.55 0.43 0.35 0.26 0.19 0.14 0.11 0.11 0.14 0.14 0.15 0.09 0.04 0.01 0.01 0.02 0.01 0.00 0.00 0.00 0.00 0.00 0.00 0.00
0.00 0.00 0.00 0.00 0.00 0.00 0.00 0.02 0.04 0.09 0.17 0.27 0.33 0.34 0.37 0.35 0.35 0.37 0.42 0.47 0.47 0.41 0.32 0.26 0.23 0.19 0.12 0.11 0.12 0.10 0.05 0.03 0.01 0.00 0.01 0.03 0.03 0.00 0.00 0.00 0.00 0.00 0.00
0.00 0.00 0.00 0.00 0.00 0.00 0.00 0.00 0.02 0.04 0.09 0.17 0.20 0.18 0.21 0.22 0.22 0.26 0.28 0.34 0.39 0.41 0.39 0.31 0.29 0.26 0.16 0.10 0.12 0.09 0.05 0.04 0.01 0.00 0.00 0.01 0.01 0.01 0.00 0.00 0.00 0.00 0.00
0.00 0.00 0.00 0.00 0.00 0.00 0.00 0.00 0.01 0.01 0.03 0.04 0.07 0.08 0.06 0.06 0.07 0.13 0.17 0.23 0.34 0.40 0.41 0.38 0.37 0.33 0.24 0.13 0.12 0.13 0.11 0.05 0.02 0.01 0.00 0.00 0.00 0.00 0.01 0.02 0.01 0.00 0.00
0.00 0.00 0.00 0.00 0.00 0.00 0.00 0.00 0.00 0.00 0.01 0.01 0.02 0.02 0.02 0.02 0.03 0.06 0.14 0.24 0.33 0.48 0.41 0.35 0.36 0.36 0.34 0.24 0.19 0.18 0.17 0.12 0.10 0.06 0.02 0.01 0.00 0.00 0.01 0.03 0.03 0.01 0.00
0.00 0.00 0.00 0.00 0.00 0.00 0.00 0.00 0.00 0.00 0.00 0.00 0.00 0.00 0.01 0.01 0.02 0.05 0.12 0.29 0.35 0.51 0.58 0.45 0.37 0.36 0.37 0.32 0.26 0.23 0.18 0.16 0.17 0.12 0.06 0.05 0.02 0.00 0.00 0.01 0.01 0.01 0.00
0.00 0.00 0.00 0.00 0.00 0.00 0.00 0.00 0.00 0.00 0.00 0.00 0.00 0.00 0.00 0.01 0.02 0.04 0.06 0.22 0.37 0.48 0.60 0.58 0.45 0.39 0.40 0.39 0.33 0.28 0.22 0.15 0.11 0.11 0.09 0.11 0.09 0.03 0.01 0.01 0.03 0.03 0.01
0.00 0.00 0.00 0.00 0.00 0.00 0.00 0.00 0.00 0.00 0.00 0.00 0.00 0.00 0.00 0.01 0.03 0.02 0.01 0.06 0.19 0.27 0.35 0.41 0.40 0.39 0.42 0.41 0.37 0.32 0.24 0.15 0.10 0.09 0.08 0.07 0.07 0.06 0.03 0.01 0.02 0.05 0.07
0.00 0.00 0.00 0.00 0.00 0.00 0.00 0.00 0.00 0.00 0.00 0.00 0.00 0.00 0.00 0.00 0.01 0.01 0.01 0.01 0.05 0.09 0.15 0.21 0.22 0.27 0.37 0.43 0.43 0.40 0.32 0.21 0.13 0.09 0.09 0.08 0.07 0.07 0.05 0.02 0.01 0.02 0.05
0.00 0.00 0.00 0.00 0.00 0.00 0.00 0.00 0.00 0.00 0.00 0.00 0.00 0.00 0.00 0.00 0.00 0.01 0.01 0.01 0.03 0.05 0.07 0.12 0.14 0.18 0.24 0.35 0.45 0.45 0.35 0.25 0.17 0.10 0.07 0.10 0.05 0.06 0.05 0.04 0.03 0.02 0.03
0.01 0.00 0.00 0.00 0.00 0.00 0.00 0.00 0.00 0.00 0.00 0.00 0.00 0.00 0.00 0.00 0.00 0.01 0.02 0.02 0.03 0.03 0.04 0.07 0.10 0.13 0.16 0.20 0.29 0.35 0.31 0.24 0.20 0.15 0.09 0.08 0.07 0.05 0.05 0.05 0.05 0.06 0.06
0.01 0.01 0.01 0.01 0.00 0.00 0.00 0.00 0.00 0.00 0.00 0.00 0.00 0.00 0.00 0.00 0.00 0.01 0.03 0.03 0.03 0.02 0.03 0.04 0.07 0.11 0.12 0.14 0.19 0.23 0.24 0.23 0.18 0.14 0.10 0.07 0.05 0.05 0.06 0.09 0.08 0.08 0.08
0.02 0.01 0.01 0.00 0.00 0.00 0.00 0.00 0.00 0.00 0.00 0.00 0.00 0.00 0.01 0.01 0.01 0.01 0.02 0.03 0.03 0.02 0.02 0.04 0.05 0.05 0.05 0.09 0.15 0.19 0.21 0.20 0.16 0.13 0.09 0.06 0.04 0.04 0.07 0.11 0.14 0.14 0.12
0.02 0.01 0.01 0.00 0.00 0.00 0.00 0.00 0.01 0.00 0.01 0.01 0.01 0.01 0.01 0.02 0.02 0.03 0.02 0.03 0.04 0.03 0.03 0.03 0.03 0.02 0.02 0.05 0.09 0.12 0.13 0.16 0.17 0.13 0.08 0.06 0.07 0.07 0.07 0.07 0.11 0.16 0.14
0.01 0.01 0.00 0.00 0.00 0.00 0.00 0.01 0.02 0.02 0.02 0.02 0.02 0.02 0.02 0.03 0.04 0.04 0.03 0.03 0.04 0.03 0.03 0.03 0.02 0.02 0.02 0.05 0.09 0.12 0.09 0.10 0.10 0.07 0.07 0.09 0.12 0.11 0.06 0.05 0.08 0.12 0.13
0.00 0.00 0.00 0.00 0.00 0.00 0.02 0.05 0.06 0.07 0.08 0.10 0.09 0.06 0.05 0.06 0.06 0.06 0.07 0.07 0.07 0.05 0.04 0.04 0.03 0.02 0.02 0.04 0.08 0.09 0.09 0.10 0.08 0.08 0.09 0.10 0.13 0.16 0.11 0.06 0.05 0.07 0.08
0.00 0.00 0.00 0.00 0.01 0.02 0.04 0.08 0.12 0.11 0.13 0.20 0.22 0.15 0.09 0.11 0.13 0.11 0.10 0.14 0.13 0.10 0.09 0.07 0.05 0.03 0.03 0.03 0.03 0.04 0.05 0.09 0.12 0.12 0.11 0.13 0.11 0.10 0.13 0.14 0.12 0.09 0.08
0.00 0.00 0.00 0.00 0.00 0.00 0.01 0.03 0.05 0.09 0.11 0.14 0.19 0.20 0.17 0.18 0.21 0.20 0.21 0.21 0.18 0.17 0.15 0.10 0.07 0.06 0.04 0.02 0.02 0.02 0.04 0.07 0.10 0.11 0.10 0.09 0.07 0.07 0.09 0.16 0.22 0.20 0.17
0.00 0.00 0.00 0.00 0.00 0.00 0.00 0.00 0.01 0.02 0.05 0.07 0.11 0.16 0.18 0.20 0.25 0.31 0.34 0.28 0.23 0.22 0.18 0.12 0.08 0.07 0.05 0.04 0.02 0.01 0.02 0.03 0.04 0.08 0.11 0.13 0.11 0.09 0.09 0.11 0.18 0.21 0.21
0.00 0.00 0.00 0.00 0.00 0.00 0.00 0.00 0.00 0.01 0.01 0.02 0.04 0.07 0.11 0.16 0.24 0.30 0.27 0.24 0.24 0.23 0.18 0.13 0.09 0.06 0.04 0.03 0.03 0.02 0.02 0.02 0.03 0.07 0.14 0.18 0.15 0.11 0.10 0.11 0.13 0.16 0.20
0.00 0.00 0.00 0.00 0.00 0.00 0.00 0.00 0.00 0.00 0.00 0.00 0.01 0.02 0.04 0.07 0.12 0.18 0.20 0.21 0.22 0.21 0.16 0.11 0.07 0.04 0.03 0.03 0.04 0.03 0.03 0.02 0.02 0.04 0.07 0.09 0.11 0.10 0.09 0.08 0.08 0.07 0.07
0.00 0.00 0.00 0.00 0.00 0.00 0.00 0.00 0.00 0.00 0.00 0.00 0.00 0.00 0.01 0.01 0.05 0.10 0.14 0.18 0.22 0.22 0.17 0.10 0.05 0.04 0.04 0.03 0.03 0.06 0.05 0.03 0.03 0.02 0.02 0.03 0.04 0.05 0.05 0.05 0.05 0.05 0.05
0.00 0.00 0.00 0.00 0.00 0.00 0.00 0.00 0.00 0.00 0.00 0.00 0.00 0.00 0.00 0.00 0.01 0.04 0.10 0.18 0.20 0.14 0.09 0.07 0.06 0.05 0.05 0.05 0.05 0.09 0.12 0.07 0.04 0.02 0.01 0.01 0.01 0.02 0.03 0.03 0.03 0.04 0.06
0.00 0.00 0.00 0.00 0.00 0.00 0.00 0.00 0.00 0.00 0.00 0.00 0.00 0.00 0.00 0.00 0.00 0.01 0.05 0.11 0.12 0.10 0.08 0.08 0.08 0.08 0.07 0.05 0.04 0.07 0.12 0.12 0.11 0.06 0.03 0.03 0.02 0.02 0.01 0.01 0.02 0.03 0.04
0.00 0.00 0.00 0.00 0.00 0.00 0.00 0.00 0.00 0.00 0.00 0.00 0.00 0.00 0.00 0.00 0.00 0.01 0.02 0.04 0.05 0.06 0.05 0.05 0.06 0.06 0.05 0.05 0.05 0.04 0.06 0.07 0.06 0.07 0.07 0.06 0.05 0.04 0.02 0.01 0.01 0.01 0.02